Home > Weather > Imst > Past weeks

Flag for Austria Past Weather in Imst, Tyrol, Austria — Yesterday and Last 2 Weeks

Now
52 °F

Fog.


Feels Like: 52 °F
Forecast: 49 / 62 °F
Wind: No wind

Location: Landeck

Current Time: May 31, 2016 at 2:19:03 AM

Latest Report: May 31, 2016 at 1:00 AM


Visibility: N/A

Pressure: 29.89 "Hg (27.16 "Hg at 797m altitude)

Humidity: 94%

Dew Point: 50 °F

Location of ImstLocation

Past Weather in Imst — Graph

°F

Imst Temperature Yesterday

Maximum temperature yesterday: 65 °F (at 2:00 PM)
Minimum temperature yesterday: 52 °F (at 3:00 AM)
Average temperature yesterday: 56 °F

High & Low Weather Summary for the Past Weeks

 TemperatureHumidityPressure
High84 °F (May 27, 3:00 PM)94% (May 30, 9:00 PM)30.24 "Hg (May 30, 9:00 PM)
Low40 °F (May 17, 4:00 AM)17% (May 25, 5:00 PM)29.59 "Hg (May 29, 2:00 PM)
Average57 °F64%29.93 "Hg
* Reported May 16 1:00 AM — May 31 1:00 AM, Imst, Weather by CustomWeather, © 2016

Note: Actual official high and low records may vary slightly from our data, if they occured in-between our weather recording intervals... More about our weather records

Advertising

Imst Weather History for the Previous 24 Hours

Scroll right to see more
 ConditionsComfort  
Time TempWeatherWind HumidityBarometerVisibility
1:00 AM
Tue, May 31
52 °FFog.No wind94%29.89 "HgN/A
12:00 AM52 °FFog.No wind94%29.89 "HgN/A
11:00 PM
Mon, May 30
52 °FCool.No wind94%29.89 "HgN/A
10:00 PM53 °FFog.1 mph93%29.87 "HgN/A
9:00 PM53 °FFog.1 mph94%29.86 "HgN/A
8:00 PM54 °FCool.1 mph92%29.85 "HgN/A
7:00 PM54 °FFog.1 mph89%29.83 "HgN/A
6:00 PM55 °FFog.2 mph90%29.82 "HgN/A
5:00 PM56 °FCool.1 mph86%29.81 "HgN/A
4:00 PM54 °FFog.3 mph88%29.81 "HgN/A
3:00 PM56 °FCool.5 mph80%29.78 "HgN/A
2:00 PM65 °FMild.2 mph55%29.67 "HgN/A
1:00 PM64 °FMild.2 mph57%29.67 "HgN/A
12:00 PM64 °FMild.1 mph62%29.67 "HgN/A
11:00 AM62 °FMild.2 mph61%29.69 "HgN/A
10:00 AM58 °FCool.1 mph74%29.72 "HgN/A
9:00 AM56 °FCool.2 mph80%29.74 "HgN/A
8:00 AM54 °FCool.1 mph85%29.76 "HgN/A
7:00 AM53 °FCool.2 mph86%29.76 "HgN/A
6:00 AM53 °FCool.2 mph88%29.76 "HgN/A
5:00 AM52 °FCool.2 mph87%29.75 "HgN/A
4:00 AM53 °FCool.2 mph88%29.75 "HgN/A
3:00 AM52 °FCool.2 mph91%29.76 "HgN/A
2:00 AM53 °FCool.2 mph93%29.78 "HgN/A
Weather by CustomWeather, © 2016

See weather overviewHow to use our weather pages